Flag for Germany

Past Weather in Weil am Rhein, Baden-Württemberg, Germany — Yesterday and Last 2 Weeks

Now
72 °F

Overcast.


Feels Like: 71 °F
Forecast: 87 / 66 °F
Wind: 3 mph from Northwest

Location: Bale-Mulhouse
Current Time: Aug 12, 2020 at 11:45:20 pm
Latest Report: Aug 12, 2020 at 11:00 pm
Visibility: 13 mi
Pressure29.93 "Hg
Humidity: 87%
Dew Point: 68 °F
Location of Weil am RheinLocation

Past Weather in Weil am Rhein — Graph

°F

Weil am Rhein Temperature Yesterday

Maximum temperature yesterday: 93 °F (at 3:00 pm)
Minimum temperature yesterday: 68 °F (at 7:00 am)
Average temperature yesterday: 79 °F

High & Low Weather Summary for the Past Weeks

 TemperatureHumidityPressure
High99 °F (Jul 31, 5:00 pm)100% (Aug 3, 7:00 am)30.14 "Hg (Aug 3, 7:00 am)
Low50 °F (Aug 5, 6:00 am)20% (Jul 30, 5:00 pm)29.85 "Hg (Aug 10, 6:00 pm)
Average73 °F64%30.00 "Hg
* Reported Jul 28 10:00 pm — Aug 12 10:00 pm, Weil am Rhein. Weather by CustomWeather, © 2020

Note: Actual official high and low records may vary slightly from our data, if they occured in-between our weather recording intervals... More about our weather records

Weil am Rhein Weather History for the Previous 24 Hours

Scroll right to see more
 ConditionsComfort  
Time TempWeatherWind HumidityBarometerVisibility
10:00 pm
Wed, Aug 12
75 °FPassing clouds.1 mph79%29.92 "Hg14 mi
9:00 pm77 °FOvercast.2 mph74%29.90 "Hg16 mi
8:00 pm80 °FWarm.3 mph64%29.89 "Hg16 mi
7:00 pm81 °FWarm.7 mph62%29.89 "Hg22 mi
6:00 pm85 °FSprinkles. Overcast.3 mph58%29.89 "Hg19 mi
5:00 pm89 °FOvercast.3 mph41%29.88 "Hg19 mi
4:00 pm91 °FPartly sunny.5 mph37%29.89 "Hg19 mi
3:00 pm90 °FOvercast.2 mph41%29.90 "Hg12 mi
2:00 pm90 °FPartly sunny.3 mph46%29.91 "Hg19 mi
1:00 pm86 °FOvercast.3 mph52%29.93 "Hg19 mi
12:00 pm84 °FPartly sunny.6 mph54%29.94 "Hg19 mi
11:00 am84 °FScattered clouds.8 mph50%29.94 "Hg19 mi
10:00 am82 °FScattered clouds.7 mph56%29.94 "Hg19 mi
9:00 am77 °FScattered clouds.3 mph66%29.96 "Hg19 mi
8:00 am71 °FPassing clouds.No wind79%29.97 "Hg19 mi
7:00 am66 °FPassing clouds.2 mph92%29.98 "Hg19 mi
6:00 am66 °FPassing clouds.5 mph91%29.97 "Hg12 mi
5:00 am65 °FMild.2 mph92%29.98 "Hg9 mi
4:00 am68 °FMild.1 mph85%29.97 "Hg12 mi
3:00 am68 °FMild.1 mph85%29.96 "Hg11 mi
2:00 am69 °FMild.3 mph84%29.96 "Hg12 mi
1:00 am69 °FMild.2 mph86%29.96 "Hg12 mi
12:00 am70 °FMild.3 mph82%29.96 "Hg12 mi
11:00 pm
Tue, Aug 11
72 °FMild.1 mph79%29.96 "Hg6 mi
Weather by CustomWeather, © 2020

See weather overview